Location: Brno
(49.2000°N, 16.6330°E)
Time: 18:48:04
(UTC+02:00)

Transit 4A - Pass Details

Date: 29 July 2021
Orbit: 871 x 974 km, 66.8° (Epoch: 16 September)

Event Time Altitude Azimuth Distance (km) Brightness Sun altitude
Rises 05:26:16 0° 297° (WNW) 3,470 10.6 -0.2°
Reaches altitude 10° 05:30:07 10° 322° (NW) 2,528 10.1 0.4°
Maximum altitude 05:33:07 14° 353° (N) 2,246 10.2 0.8°
Drops below altitude 10° 05:36:07 10° 24° (NNE) 2,532 11.1 1.2°
Sets 05:39:59 0° 49° (NE) 3,480 13.0 1.8°
